SL-16 DEB, 24302

Orbit data source: Space-Track

SL-16 DEB, 24302 is space debris in LEO originally from a launch on Wed, 04 Sep 1996 UTC launched from the Tyuratam Missile And Space Complex (TTMTR). Debris objects in space refer to the collection of defunct objects orbiting the Earth. Examples of debris include non-operational satellites, rocket bodies, and fragments generated from explosions, collisions, or faulty payload assembly.

Loading next visibility...
Identifier
24302, 1996-051F
Orbit
LEO
Country
Flag of CISCIS
Related business
Manufacturer
Yuzhnoe
Mission
Spacecraft
Bus & Motor
SEP MOTOR COVER, Unknown motor
Mass
~0 kg wet, ~1 kg dry
Launch date (UTC)
1996-09-04 (29 years ago)
Launch vehicle
Unknown
Launch site
Tyuratam Missile And Space Complex (TTMTR)
Object type
Payload
Rocket body
Debris
Shape & HBR
Unknown
Radar Cross Section
Small (<0.1 m²)

Expand to show TLE details & history
Last TLE update: 15 hours ago

TLE from 15 hours ago
0 SL-16 DEB
1 24302U 96051F   25261.28247481  .00000131  00000-0  16722-3 0  9990
2 24302  70.9879 357.0123 0209098 269.3299 118.9820 13.71104556452320
Epoch: 2025-09-18T06:46Z
TLE epoch observation values (Epoch: 2025-09-18T06:46:45.823Z)
Latitude
28.61811°
Longitude
-91.34483°
Altitude
1,075.737 km
Speed
7.279 km/s
True Right ascension
00h 31m 10s
True Declination
28° 28' 48"
Sunlit
Object was in full shadow at epoch
Visualization orbit readout
Latitude
Unknown
Longitude
Unknown
Altitude
Unknown
Speed
Unknown
Apparent Right ascension
Unknown
Apparent Declination
Unknown
Sunlit
N/A
Visualization observer readout
Local Sidereal Time
14:38:50
Azimuth
Unknown
Elevation
Unknown
Doppler factor
Unknown
Orbital elements
Apogee altitude
1,147.717 km
Perigee altitude
839.435 km
Semi-major axis
7,371.713 km
Eccentricity
0.02091
Inclination
70.9879°
RAAN
357.0123°
Arg. of periapsis
269.3299°
True anomaly
121.05135°
Mean anomaly
118.982°
Eccentric anomaly
120.01933°
Mean motion
3.42918 °/min
Orbital period
104.98 mins
BSTAR
0.00016722
Loading maneuver chart data...
Computing Atmospheric mass density...
Loading historical data...
Loading historical data...
Loading historical data...
Loading historical data...
Loading historical data...
Loading historical data...
Loading historical data...

Documentation

Showing up to 5 results
|